| time (UTC) | temp C | wind direction | speed KPH | gust KPH | rain 1hr cm | rain 24hr cm | rain mn cm | humidity % | barometer mb |
| 20260509175750 | 21 | 293 | 3.2 | 0.0 | 403.48 | 0.00 | 0.08 | 57 | 1008.4 |
| 20260509175251 | 21 | 211 | 3.2 | 0.0 | 403.48 | 0.00 | 0.08 | 57 | 1008.4 |
| 20260509174750 | 20 | 181 | 4.8 | 0.0 | 403.48 | 0.00 | 0.08 | 59 | 1008.4 |
| 20260509173828 | 20 | 291 | 14.5 | 0.0 | 403.48 | 0.00 | 0.08 | 58 | 1008.6 |
| 20260509173750 | 20 | 291 | 14.5 | 0.0 | 403.48 | 0.00 | 0.08 | 58 | 1008.6 |
| 20260509173251 | 20 | 210 | 12.9 | 0.0 | 403.48 | 0.00 | 0.08 | 61 | 1008.6 |
| 20260509172750 | 20 | 181 | 4.8 | 0.0 | 403.48 | 0.00 | 0.08 | 65 | 1008.6 |
| 20260509172250 | 19 | 200 | 4.8 | 0.0 | 403.48 | 0.00 | 0.08 | 63 | 1008.7 |
| 20260509171250 | 19 | 235 | 4.8 | 0.0 | 403.48 | 0.00 | 0.08 | 61 | 1008.7 |
| 20260509170750 | 19 | 284 | 3.2 | 0.0 | 403.48 | 0.00 | 0.08 | 62 | 1008.7 |
| 20260509170250 | 19 | 249 | 9.7 | 0.0 | 403.48 | 0.00 | 0.08 | 63 | 1008.8 |
| 20260509165750 | 18 | 224 | 4.8 | 0.0 | 403.48 | 0.00 | 0.08 | 65 | 1008.7 |
| 20260509165250 | 18 | 242 | 16.1 | 0.0 | 403.48 | 0.00 | 0.08 | 66 | 1008.7 |
| 20260509164750 | 18 | 117 | 6.4 | 0.0 | 403.48 | 0.00 | 0.08 | 67 | 1008.7 |
| 20260509164252 | 18 | 301 | 8.0 | 0.0 | 403.48 | 0.00 | 0.08 | 65 | 1008.8 |
| 20260509163750 | 18 | 174 | 11.3 | 0.0 | 403.48 | 0.00 | 0.08 | 65 | 1008.7 |
| 20260509163251 | 18 | 270 | 8.0 | 0.0 | 403.48 | 0.00 | 0.08 | 67 | 1008.8 |
| 20260509162751 | 18 | 232 | 19.3 | 0.0 | 403.48 | 0.00 | 0.08 | 67 | 1008.8 |
| 20260509162250 | 18 | 181 | 11.3 | 0.0 | 403.48 | 0.00 | 0.08 | 68 | 1008.8 |
| 20260509161250 | 17 | 293 | 8.0 | 0.0 | 403.48 | 0.00 | 0.08 | 68 | 1008.7 |
| 20260509160750 | 17 | 287 | 3.2 | 0.0 | 403.48 | 0.00 | 0.08 | 72 | 1008.6 |
| 20260509160250 | 17 | 132 | 4.8 | 0.0 | 403.48 | 0.00 | 0.08 | 72 | 1008.6 |
| 20260509155751 | 17 | 167 | 12.9 | 0.0 | 403.48 | 0.00 | 0.08 | 72 | 1008.7 |
| 20260509155250 | 17 | 309 | 4.8 | 0.0 | 403.48 | 0.00 | 0.08 | 71 | 1008.7 |
| 20260509154751 | 17 | 259 | 4.8 | 0.0 | 403.48 | 0.00 | 0.08 | 72 | 1008.7 |
| 20260509154250 | 17 | 274 | 4.8 | 0.0 | 403.48 | 0.00 | 0.08 | 71 | 1008.6 |
| 20260509153750 | 17 | 309 | 4.8 | 0.0 | 403.48 | 0.00 | 0.08 | 72 | 1008.6 |
| 20260509153251 | 17 | 159 | 1.6 | 0.0 | 403.48 | 0.00 | 0.08 | 72 | 1008.6 |
| 20260509152250 | 17 | 325 | 11.3 | 0.0 | 403.48 | 0.00 | 0.08 | 73 | 1008.5 |
| 20260509151751 | 16 | 203 | 1.6 | 0.0 | 403.48 | 0.00 | 0.08 | 73 | 1008.5 |
| 20260509151325 | 16 | 294 | 4.8 | 0.0 | 403.48 | 0.00 | 0.08 | 74 | 1008.6 |
| 20260509151250 | 16 | 301 | 9.7 | 0.0 | 403.48 | 0.00 | 0.08 | 73 | 1008.6 |
| 20260509150749 | 16 | 294 | 4.8 | 0.0 | 403.48 | 0.00 | 0.08 | 74 | 1008.6 |
| 20260509150249 | 16 | 246 | 4.8 | 0.0 | 403.48 | 0.00 | 0.08 | 74 | 1008.6 |
| 20260509150006 | 16 | 259 | 8.0 | 0.0 | 403.48 | 0.00 | 0.08 | 75 | 1008.6 |
| 20260509145750 | 16 | 259 | 8.0 | 0.0 | 403.48 | 0.00 | 0.08 | 75 | 1008.6 |
| 20260509145744 | 16 | 158 | 3.2 | 0.0 | 403.48 | 0.00 | 0.08 | 74 | 1008.4 |
| 20260509145250 | 16 | 158 | 3.2 | 0.0 | 403.48 | 0.00 | 0.08 | 74 | 1008.4 |
| 20260509145151 | 16 | 245 | 3.2 | 0.0 | 403.48 | 0.00 | 0.08 | 75 | 1008.3 |
| 20260509144749 | 16 | 297 | 4.8 | 0.0 | 403.48 | 0.00 | 0.08 | 75 | 1008.5 |
| 20260509144250 | 16 | 245 | 3.2 | 0.0 | 403.48 | 0.00 | 0.08 | 75 | 1008.3 |
| 20260509143951 | 16 | 150 | 9.7 | 0.0 | 403.48 | 0.00 | 0.08 | 77 | 1008.3 |
| 20260509143750 | 16 | 150 | 9.7 | 0.0 | 403.48 | 0.00 | 0.08 | 77 | 1008.3 |
| 20260509143551 | 16 | 264 | 8.0 | 0.0 | 403.48 | 0.00 | 0.08 | 79 | 1008.2 |
| 20260509143250 | 16 | 264 | 8.0 | 0.0 | 403.48 | 0.00 | 0.08 | 79 | 1008.2 |
| 20260509142750 | 16 | 262 | 6.4 | 0.0 | 403.48 | 0.00 | 0.08 | 80 | 1008.2 |
| 20260509141750 | 15 | 301 | 4.8 | 0.0 | 403.48 | 0.00 | 0.08 | 81 | 1008.2 |
| 20260509141741 | 15 | 201 | 1.6 | 0.0 | 403.48 | 0.00 | 0.08 | 83 | 1008.4 |
| 20260509140750 | 15 | 322 | 3.2 | 0.0 | 403.48 | 0.00 | 0.08 | 82 | 1008.3 |
| 20260509140249 | 15 | 201 | 1.6 | 0.0 | 403.48 | 0.00 | 0.08 | 83 | 1008.4 |
| 20260509135751 | 14 | 301 | 3.2 | 0.0 | 403.48 | 0.00 | 0.08 | 86 | 1008.5 |
| 20260509135249 | 15 | 326 | 9.7 | 0.0 | 403.48 | 0.00 | 0.08 | 85 | 1008.5 |
| 20260509135104 | 14 | 262 | 1.6 | 0.0 | 403.48 | 0.00 | 0.08 | 86 | 1008.7 |
| 20260509134749 | 14 | 297 | 8.0 | 0.0 | 403.48 | 0.00 | 0.08 | 85 | 1008.5 |
| 20260509134250 | 14 | 301 | 3.2 | 0.0 | 403.48 | 0.00 | 0.08 | 86 | 1008.5 |
| 20260509133749 | 14 | 262 | 1.6 | 0.0 | 403.48 | 0.00 | 0.08 | 86 | 1008.7 |
| 20260509133249 | 14 | 308 | 3.2 | 0.0 | 403.48 | 0.00 | 0.08 | 86 | 1008.7 |
| 20260509133159 | 13 | 222 | 8.0 | 0.0 | 403.48 | 0.00 | 0.08 | 87 | 1008.7 |
| 20260509132750 | 13 | 222 | 8.0 | 0.0 | 403.48 | 0.00 | 0.08 | 87 | 1008.7 |
| 20260509132729 | 13 | 252 | 9.7 | 0.0 | 403.48 | 0.00 | 0.08 | 87 | 1008.6 |
| 20260509132250 | 13 | 252 | 9.7 | 0.0 | 403.48 | 0.00 | 0.08 | 87 | 1008.6 |
| 20260509132010 | 13 | 308 | 11.3 | 0.0 | 403.48 | 0.00 | 0.08 | 88 | 1008.5 |
| 20260509131749 | 13 | 308 | 11.3 | 0.0 | 403.48 | 0.00 | 0.08 | 88 | 1008.5 |
| 20260509131250 | 13 | 318 | 1.6 | 0.0 | 403.48 | 0.00 | 0.08 | 88 | 1008.5 |
| 20260509131141 | 13 | 270 | 3.2 | 0.0 | 403.48 | 0.00 | 0.08 | 89 | 1008.5 |
| 20260509130749 | 13 | 270 | 3.2 | 0.0 | 403.48 | 0.00 | 0.08 | 89 | 1008.5 |
| 20260509130549 | 13 | 264 | 1.6 | 0.0 | 403.48 | 0.00 | 0.08 | 89 | 1008.6 |
| 20260509130249 | 13 | 264 | 1.6 | 0.0 | 403.48 | 0.00 | 0.08 | 89 | 1008.6 |
| 20260509130035 | 13 | 274 | 1.6 | 0.0 | 403.48 | 0.00 | 0.08 | 89 | 1008.5 |
| 20260509125800 | 13 | 283 | 3.2 | 0.0 | 403.48 | 0.00 | 0.08 | 89 | 1008.5 |
| 20260509125750 | 13 | 274 | 1.6 | 0.0 | 403.48 | 0.00 | 0.08 | 89 | 1008.5 |
| 20260509125249 | 13 | 283 | 3.2 | 0.0 | 403.48 | 0.00 | 0.08 | 89 | 1008.5 |
| 20260509125057 | 13 | 249 | 0.0 | 0.0 | 403.48 | 0.00 | 0.08 | 89 | 1008.5 |
| 20260509124749 | 13 | 0 | 0.0 | 0.0 | 403.48 | 0.00 | 0.08 | 89 | 1008.6 |
| 20260509124250 | 13 | 249 | 0.0 | 0.0 | 403.48 | 0.00 | 0.08 | 89 | 1008.5 |
| 20260509124226 | 12 | 72 | 1.6 | 0.0 | 403.48 | 0.00 | 0.08 | 89 | 1008.7 |
| 20260509123749 | 12 | 72 | 1.6 | 0.0 | 403.48 | 0.00 | 0.08 | 89 | 1008.7 |
| 20260509123432 | 13 | 269 | 1.6 | 0.0 | 403.48 | 0.00 | 0.08 | 89 | 1008.8 |
| 20260509123249 | 13 | 269 | 1.6 | 0.0 | 403.48 | 0.00 | 0.08 | 89 | 1008.8 |
| 20260509122752 | 12 | 214 | 1.6 | 0.0 | 403.48 | 0.00 | 0.08 | 89 | 1008.7 |
| 20260509122250 | 12 | 160 | 3.2 | 0.0 | 403.48 | 0.00 | 0.08 | 89 | 1008.9 |
| 20260509121751 | 12 | 309 | 3.2 | 0.0 | 403.48 | 0.00 | 0.08 | 89 | 1008.9 |
| 20260509121250 | 12 | 194 | 3.2 | 0.0 | 403.48 | 0.00 | 0.08 | 89 | 1008.9 |
| 20260509120749 | 12 | 76 | 0.0 | 0.0 | 403.48 | 0.00 | 0.08 | 89 | 1008.8 |
| 20260509115749 | 12 | 243 | 1.6 | 0.0 | 403.48 | 0.00 | 0.08 | 89 | 1008.7 |
| 20260509115249 | 12 | 224 | 1.6 | 0.0 | 403.48 | 0.00 | 0.08 | 89 | 1008.7 |
| 20260509114749 | 12 | 326 | 3.2 | 0.0 | 403.48 | 0.00 | 0.08 | 89 | 1008.7 |
| 20260509114250 | 12 | 205 | 1.6 | 0.0 | 403.48 | 0.00 | 0.08 | 89 | 1008.5 |
| 20260509113749 | 12 | 274 | 6.4 | 0.0 | 403.48 | 0.00 | 0.08 | 89 | 1008.6 |
| 20260509113249 | 12 | 300 | 0.0 | 0.0 | 403.48 | 0.00 | 0.08 | 89 | 1008.5 |
| 20260509112749 | 12 | 256 | 3.2 | 0.0 | 403.48 | 0.00 | 0.08 | 89 | 1008.4 |
| 20260509112249 | 12 | 190 | 0.0 | 0.0 | 403.48 | 0.00 | 0.08 | 89 | 1008.4 |
| 20260509111749 | 12 | 297 | 3.2 | 0.0 | 403.48 | 0.00 | 0.08 | 88 | 1008.5 |
| 20260509111251 | 12 | 155 | 0.0 | 0.0 | 403.48 | 0.00 | 0.08 | 88 | 1008.5 |
| 20260509111119 | 12 | 198 | 1.6 | 0.0 | 403.48 | 0.00 | 0.08 | 88 | 1008.5 |
| 20260509110823 | 12 | 226 | 6.4 | 0.0 | 403.48 | 0.00 | 0.08 | 88 | 1008.5 |
| 20260509110749 | 12 | 198 | 1.6 | 0.0 | 403.48 | 0.00 | 0.08 | 88 | 1008.5 |
| 20260509110249 | 12 | 226 | 6.4 | 0.0 | 403.48 | 0.00 | 0.08 | 88 | 1008.5 |
| 20260509110224 | 12 | 179 | 1.6 | 0.0 | 403.48 | 0.00 | 0.08 | 88 | 1008.3 |
| 20260509105749 | 12 | 179 | 1.6 | 0.0 | 403.48 | 0.00 | 0.08 | 88 | 1008.3 |
| 20260509105626 | 12 | 174 | 3.2 | 0.0 | 403.48 | 0.00 | 0.08 | 88 | 1008.5 |
| 20260509105249 | 12 | 174 | 3.2 | 0.0 | 403.48 | 0.00 | 0.08 | 88 | 1008.5 |
| 20260509105149 | 12 | 271 | 4.8 | 0.0 | 403.48 | 0.00 | 0.08 | 88 | 1008.5 |
| 20260509104749 | 12 | 271 | 4.8 | 0.0 | 403.48 | 0.00 | 0.08 | 88 | 1008.5 |
| 20260509104251 | 12 | 285 | 8.0 | 0.0 | 403.48 | 0.00 | 0.08 | 88 | 1008.4 |
| 20260509103847 | 12 | 41 | 1.6 | 0.0 | 403.48 | 0.00 | 0.08 | 88 | 1008.2 |
| 20260509103750 | 12 | 41 | 1.6 | 0.0 | 403.48 | 0.00 | 0.08 | 88 | 1008.2 |
| 20260509103651 | 12 | 240 | 1.6 | 0.0 | 403.48 | 0.00 | 0.08 | 88 | 1008.3 |
| 20260509103250 | 12 | 240 | 1.6 | 0.0 | 403.48 | 0.00 | 0.08 | 88 | 1008.3 |
| 20260509102749 | 12 | 235 | 1.6 | 0.0 | 403.48 | 0.00 | 0.08 | 88 | 1008.3 |
| 20260509102651 | 12 | 180 | 3.2 | 0.0 | 403.48 | 0.00 | 0.08 | 88 | 1008.4 |
| 20260509102352 | 12 | 245 | 8.0 | 0.0 | 403.48 | 0.00 | 0.08 | 88 | 1008.4 |
| 20260509102249 | 12 | 180 | 3.2 | 0.0 | 403.48 | 0.00 | 0.08 | 88 | 1008.4 |
| 20260509101749 | 12 | 245 | 8.0 | 0.0 | 403.48 | 0.00 | 0.08 | 88 | 1008.4 |
| 20260509101426 | 12 | 233 | 6.4 | 0.0 | 403.48 | 0.00 | 0.08 | 89 | 1008.4 |
| 20260509101249 | 12 | 270 | 8.0 | 0.0 | 403.48 | 0.00 | 0.08 | 88 | 1008.4 |
| 20260509100749 | 12 | 233 | 6.4 | 0.0 | 403.48 | 0.00 | 0.08 | 89 | 1008.4 |
| 20260509100249 | 12 | 294 | 8.0 | 0.0 | 403.48 | 0.00 | 0.08 | 89 | 1008.5 |
| 20260509095749 | 12 | 210 | 6.4 | 0.0 | 403.48 | 0.00 | 0.08 | 89 | 1008.5 |
| 20260509095249 | 12 | 278 | 4.8 | 0.0 | 403.48 | 0.00 | 0.08 | 89 | 1008.4 |
| 20260509094749 | 12 | 281 | 11.3 | 0.0 | 403.48 | 0.00 | 0.08 | 89 | 1008.5 |
| 20260509094249 | 12 | 274 | 3.2 | 0.0 | 403.48 | 0.00 | 0.08 | 89 | 1008.5 |
| 20260509093749 | 12 | 280 | 4.8 | 0.0 | 403.48 | 0.00 | 0.08 | 89 | 1008.4 |
| 20260509093249 | 12 | 173 | 3.2 | 0.0 | 403.48 | 0.00 | 0.08 | 89 | 1008.4 |
| 20260509093200 | 12 | 253 | 0.0 | 0.0 | 403.48 | 0.00 | 0.08 | 89 | 1008.5 |
| 20260509092749 | 12 | 276 | 3.2 | 0.0 | 403.48 | 0.00 | 0.08 | 89 | 1008.4 |
| 20260509092249 | 12 | 253 | 0.0 | 0.0 | 403.48 | 0.00 | 0.08 | 89 | 1008.5 |
| 20260509091249 | 12 | 250 | 0.0 | 0.0 | 403.48 | 0.00 | 0.08 | 89 | 1008.6 |
| 20260509090749 | 12 | 273 | 4.8 | 0.0 | 403.48 | 0.00 | 0.08 | 89 | 1008.6 |
| 20260509090251 | 12 | 21 | 6.4 | 0.0 | 403.48 | 0.00 | 0.08 | 89 | 1008.6 |
| 20260509090023 | 12 | 103 | 0.0 | 0.0 | 403.48 | 0.00 | 0.08 | 89 | 1008.5 |
| 20260509085749 | 12 | 103 | 0.0 | 0.0 | 403.48 | 0.00 | 0.08 | 89 | 1008.5 |
| 20260509085249 | 12 | 314 | 1.6 | 0.0 | 403.48 | 0.00 | 0.08 | 89 | 1008.6 |
| 20260509084249 | 12 | 242 | 0.0 | 0.0 | 403.48 | 0.00 | 0.08 | 89 | 1008.6 |
| 20260509083749 | 12 | 187 | 0.0 | 0.0 | 403.48 | 0.00 | 0.08 | 89 | 1008.6 |
| 20260509083250 | 12 | 246 | 3.2 | 0.0 | 403.48 | 0.00 | 0.08 | 89 | 1008.6 |
| 20260509082749 | 12 | 270 | 0.0 | 0.0 | 403.48 | 0.00 | 0.08 | 89 | 1008.6 |
| 20260509082249 | 12 | 170 | 1.6 | 0.0 | 403.48 | 0.00 | 0.08 | 89 | 1008.7 |
| 20260509081749 | 12 | 266 | 0.0 | 0.0 | 403.48 | 0.00 | 0.08 | 89 | 1008.6 |
| 20260509081249 | 12 | 193 | 0.0 | 0.0 | 403.48 | 0.00 | 0.08 | 89 | 1008.7 |
| 20260509080749 | 12 | 285 | 4.8 | 0.0 | 403.48 | 0.00 | 0.08 | 89 | 1008.7 |
| 20260509080251 | 12 | 118 | 1.6 | 0.0 | 403.48 | 0.00 | 0.08 | 89 | 1008.9 |
| 20260509075749 | 12 | 186 | 4.8 | 0.0 | 403.48 | 0.00 | 0.08 | 89 | 1008.9 |
| 20260509075249 | 12 | 257 | 4.8 | 0.0 | 403.48 | 0.00 | 0.08 | 89 | 1009.0 |
| 20260509074749 | 12 | 217 | 0.0 | 0.0 | 403.48 | 0.00 | 0.08 | 89 | 1009.0 |
| 20260509074249 | 12 | 264 | 0.0 | 0.0 | 403.48 | 0.00 | 0.08 | 89 | 1009.0 |
| 20260509073749 | 12 | 177 | 0.0 | 0.0 | 403.48 | 0.00 | 0.08 | 89 | 1009.2 |
| 20260509072749 | 12 | 181 | 3.2 | 0.0 | 403.48 | 0.00 | 0.08 | 89 | 1009.2 |
| 20260509071749 | 12 | 283 | 6.4 | 0.0 | 403.48 | 0.00 | 0.08 | 89 | 1009.2 |
| 20260509071249 | 12 | 304 | 4.8 | 0.0 | 403.48 | 0.00 | 0.08 | 88 | 1009.2 |
| 20260509070750 | 12 | 291 | 1.6 | 0.0 | 403.48 | 0.00 | 0.08 | 88 | 1009.3 |
| 20260509070250 | 12 | 218 | 1.6 | 0.0 | 403.48 | 0.00 | 0.08 | 88 | 1009.3 |
| 20260509065749 | 12 | 172 | 0.0 | 0.0 | 403.48 | 0.00 | 0.08 | 88 | 1009.5 |
| 20260509065249 | 12 | 325 | 3.2 | 0.0 | 403.48 | 0.00 | 0.08 | 88 | 1009.5 |
| 20260509064749 | 12 | 248 | 6.4 | 0.0 | 403.48 | 0.00 | 0.08 | 88 | 1009.5 |
| 20260509064249 | 12 | 278 | 6.4 | 0.0 | 403.48 | 0.00 | 0.08 | 88 | 1009.5 |
| 20260509063249 | 13 | 323 | 4.8 | 0.0 | 403.45 | 0.00 | 0.05 | 87 | 1009.5 |
| 20260509062749 | 13 | 280 | 3.2 | 0.0 | 403.43 | 0.00 | 0.03 | 87 | 1009.6 |
| 20260509061749 | 13 | 242 | 8.0 | 0.0 | 403.43 | 0.00 | 0.03 | 87 | 1009.6 |
| 20260509061249 | 13 | 233 | 3.2 | 0.0 | 403.43 | 0.00 | 0.03 | 87 | 1009.7 |
| 20260509060749 | 13 | 201 | 1.6 | 0.0 | 403.43 | 0.00 | 0.03 | 87 | 1009.7 |
| 20260509060250 | 13 | 284 | 3.2 | 0.0 | 403.43 | 0.00 | 0.03 | 87 | 1009.7 |
| 20260509055249 | 13 | 263 | 3.2 | 0.0 | 403.40 | 0.00 | 0.00 | 87 | 1009.8 |
| 20260509054749 | 13 | 255 | 3.2 | 0.0 | 403.40 | 0.00 | 0.00 | 87 | 1009.9 |
| 20260509054249 | 12 | 287 | 4.8 | 0.0 | 403.40 | 0.00 | 0.00 | 87 | 1010.0 |
| 20260509053749 | 13 | 259 | 0.0 | 0.0 | 403.40 | 0.00 | 0.00 | 87 | 1009.9 |
| 20260509053657 | 13 | 308 | 1.6 | 0.0 | 403.40 | 0.00 | 0.00 | 87 | 1010.0 |
| 20260509053249 | 13 | 308 | 1.6 | 0.0 | 403.40 | 0.00 | 0.00 | 87 | 1010.0 |
| 20260509053234 | 12 | 236 | 4.8 | 0.0 | 403.40 | 0.00 | 0.00 | 87 | 1009.9 |
| 20260509052749 | 12 | 328 | 8.0 | 0.0 | 403.40 | 0.00 | 0.00 | 87 | 1010.0 |
| 20260509052249 | 12 | 236 | 4.8 | 0.0 | 403.40 | 0.00 | 0.00 | 87 | 1009.9 |
| 20260509051749 | 12 | 290 | 4.8 | 0.0 | 403.40 | 0.00 | 0.00 | 87 | 1009.9 |
| 20260509051249 | 12 | 255 | 8.0 | 0.0 | 403.40 | 0.00 | 0.00 | 87 | 1010.0 |
| 20260509050806 | 12 | 215 | 0.0 | 0.0 | 403.40 | 0.00 | 0.00 | 87 | 1010.1 |
| 20260509050751 | 12 | 55 | 1.6 | 0.0 | 403.40 | 0.00 | 0.00 | 87 | 1010.1 |
| 20260509050249 | 12 | 215 | 0.0 | 0.0 | 403.40 | 0.00 | 0.00 | 87 | 1010.1 |
| 20260509045749 | 12 | 44 | 0.0 | 0.0 | 403.40 | 0.00 | 0.00 | 87 | 1010.1 |
| 20260509045249 | 12 | 270 | 4.8 | 0.0 | 403.40 | 0.00 | 0.00 | 87 | 1010.1 |
| 20260509044748 | 12 | 235 | 4.8 | 0.0 | 403.40 | 0.00 | 0.00 | 87 | 1010.2 |
| 20260509043748 | 12 | 249 | 0.0 | 0.0 | 403.40 | 0.00 | 0.00 | 87 | 1010.1 |
| 20260509043248 | 12 | 290 | 4.8 | 0.0 | 403.40 | 0.00 | 0.10 | 87 | 1010.2 |
| 20260509042749 | 12 | 152 | 0.0 | 0.0 | 403.40 | 0.00 | 0.10 | 87 | 1010.1 |
| 20260509042248 | 12 | 256 | 1.6 | 0.0 | 403.40 | 0.00 | 0.10 | 87 | 1010.2 |
| 20260509041748 | 12 | 277 | 3.2 | 0.0 | 403.40 | 0.00 | 0.10 | 87 | 1010.4 |
| 20260509041249 | 12 | 242 | 3.2 | 0.0 | 403.40 | 0.00 | 0.10 | 87 | 1010.4 |
| 20260509040749 | 12 | 333 | 3.2 | 0.0 | 403.40 | 0.00 | 0.10 | 87 | 1010.5 |
| 20260509040248 | 12 | 131 | 0.0 | 0.0 | 403.40 | 0.00 | 0.10 | 87 | 1010.5 |
| 20260509035751 | 12 | 98 | 1.6 | 0.0 | 403.40 | 0.00 | 0.10 | 86 | 1010.6 |
| 20260509035248 | 13 | 294 | 3.2 | 0.0 | 403.40 | 0.00 | 0.10 | 86 | 1010.7 |
| 20260509034748 | 13 | 260 | 1.6 | 0.0 | 403.40 | 0.00 | 0.10 | 86 | 1010.8 |
| 20260509034249 | 13 | 215 | 3.2 | 0.0 | 403.38 | 0.00 | 0.08 | 86 | 1010.7 |
| 20260509033748 | 13 | 132 | 0.0 | 0.0 | 403.38 | 0.00 | 0.08 | 86 | 1010.8 |
| 20260509033248 | 13 | 201 | 0.0 | 0.0 | 403.38 | 0.00 | 0.08 | 86 | 1010.7 |
| 20260509032749 | 13 | 226 | 3.2 | 0.0 | 403.38 | 0.00 | 0.08 | 86 | 1010.9 |
| 20260509032249 | 13 | 297 | 3.2 | 0.0 | 403.35 | 0.00 | 0.05 | 86 | 1011.0 |
| 20260509031748 | 13 | 84 | 0.0 | 0.0 | 403.35 | 0.00 | 0.05 | 86 | 1011.1 |
| 20260509031249 | 13 | 84 | 0.0 | 0.0 | 403.35 | 0.00 | 0.05 | 86 | 1011.0 |
| 20260509030748 | 13 | 84 | 0.0 | 0.0 | 403.35 | 0.00 | 0.05 | 86 | 1011.0 |
| 20260509025749 | 13 | 84 | 0.0 | 0.0 | 403.35 | 0.00 | 0.05 | 86 | 1011.1 |
| 20260509025248 | 13 | 84 | 0.0 | 0.0 | 403.35 | 0.00 | 0.05 | 86 | 1010.9 |
| 20260509024748 | 13 | 70 | 0.0 | 0.0 | 403.35 | 0.00 | 0.05 | 86 | 1011.1 |
| 20260509024249 | 13 | 285 | 4.8 | 0.0 | 403.35 | 0.00 | 0.05 | 86 | 1011.2 |
| 20260509023749 | 13 | 195 | 3.2 | 0.0 | 403.35 | 0.00 | 0.05 | 86 | 1011.2 |
| 20260509023248 | 13 | 152 | 0.0 | 0.0 | 403.35 | 0.00 | 0.05 | 85 | 1011.3 |
| 20260509022749 | 13 | 152 | 0.0 | 0.0 | 403.35 | 0.00 | 0.05 | 85 | 1011.2 |
| 20260509022248 | 13 | 152 | 0.0 | 0.0 | 403.35 | 0.00 | 0.05 | 85 | 1011.3 |
| 20260509021748 | 13 | 152 | 0.0 | 0.0 | 403.33 | 0.00 | 0.03 | 85 | 1011.3 |
| 20260509021249 | 13 | 152 | 0.0 | 0.0 | 403.33 | 0.00 | 0.03 | 85 | 1011.2 |
| 20260509020748 | 13 | 152 | 0.0 | 0.0 | 403.33 | 0.00 | 0.03 | 85 | 1011.2 |
| 20260509020248 | 13 | 152 | 0.0 | 0.0 | 403.33 | 0.00 | 0.03 | 85 | 1011.2 |
| 20260509015749 | 13 | 152 | 0.0 | 0.0 | 403.33 | 0.00 | 0.03 | 84 | 1011.3 |
| 20260509015249 | 13 | 152 | 0.0 | 0.0 | 403.33 | 0.00 | 0.03 | 84 | 1011.2 |
| 20260509014748 | 13 | 152 | 0.0 | 0.0 | 403.33 | 0.00 | 0.03 | 84 | 1011.1 |
| 20260509014249 | 13 | 152 | 0.0 | 0.0 | 403.33 | 0.00 | 0.03 | 84 | 1011.2 |
| 20260509013748 | 13 | 152 | 0.0 | 0.0 | 403.33 | 0.00 | 0.03 | 84 | 1011.0 |
| 20260509013248 | 13 | 152 | 0.0 | 0.0 | 403.33 | 0.00 | 0.03 | 83 | 1011.0 |
| 20260509012749 | 13 | 152 | 0.0 | 0.0 | 403.33 | 0.00 | 0.03 | 83 | 1010.9 |
| 20260509012248 | 13 | 152 | 0.0 | 0.0 | 403.33 | 0.00 | 0.03 | 83 | 1010.9 |
| 20260509011748 | 13 | 152 | 0.0 | 0.0 | 403.33 | 0.00 | 0.03 | 82 | 1010.9 |
| 20260509011249 | 13 | 152 | 0.0 | 0.0 | 403.33 | 0.00 | 0.03 | 82 | 1011.0 |
| 20260509010748 | 14 | 152 | 0.0 | 0.0 | 403.33 | 0.00 | 0.03 | 82 | 1011.0 |
| 20260509010248 | 14 | 152 | 0.0 | 0.0 | 403.33 | 0.00 | 0.03 | 81 | 1010.9 |
| 20260509005749 | 14 | 152 | 0.0 | 0.0 | 403.33 | 0.00 | 0.03 | 81 | 1011.0 |
| 20260509005248 | 14 | 152 | 0.0 | 0.0 | 403.33 | 0.00 | 0.03 | 81 | 1011.0 |
| 20260509004806 | 14 | 152 | 0.0 | 0.0 | 403.33 | 0.00 | 0.03 | 80 | 1010.9 |
| 20260509004250 | 14 | 152 | 0.0 | 0.0 | 403.33 | 0.00 | 0.03 | 80 | 1011.1 |
| 20260509003748 | 14 | 152 | 0.0 | 0.0 | 403.33 | 0.00 | 0.03 | 80 | 1010.9 |
| 20260509003350 | 14 | 152 | 0.0 | 0.0 | 403.33 | 0.00 | 0.03 | 79 | 1010.8 |
| 20260509003248 | 14 | 152 | 0.0 | 0.0 | 403.33 | 0.00 | 0.03 | 79 | 1010.8 |
| 20260509002909 | 15 | 152 | 0.0 | 0.0 | 403.33 | 0.00 | 0.03 | 78 | 1010.7 |
| 20260509002749 | 14 | 152 | 0.0 | 0.0 | 403.33 | 0.00 | 0.03 | 79 | 1010.8 |
| 20260509002248 | 15 | 152 | 0.0 | 0.0 | 403.33 | 0.00 | 0.03 | 78 | 1010.7 |
| 20260509001748 | 15 | 152 | 0.0 | 0.0 | 403.33 | 0.00 | 0.03 | 77 | 1010.7 |
| 20260509001249 | 15 | 152 | 0.0 | 0.0 | 403.33 | 0.00 | 0.03 | 76 | 1010.6 |
| 20260509000748 | 15 | 152 | 0.0 | 0.0 | 403.30 | 0.00 | 0.00 | 75 | 1010.7 |
| 20260509000248 | 15 | 152 | 0.0 | 0.0 | 403.30 | 0.00 | 0.00 | 75 | 1010.6 |
| 20260508235749 | 15 | 152 | 0.0 | 0.0 | 403.30 | 0.00 | 0.00 | 74 | 1010.6 |
| 20260508235320 | 15 | 152 | 0.0 | 0.0 | 403.30 | 0.00 | 0.00 | 73 | 1010.5 |
| 20260508235248 | 15 | 152 | 0.0 | 0.0 | 403.30 | 0.00 | 0.00 | 73 | 1010.5 |
| 20260508234748 | 15 | 48 | 0.0 | 0.0 | 403.30 | 0.00 | 0.00 | 72 | 1010.4 |
| 20260508233748 | 15 | 28 | 0.0 | 0.0 | 403.30 | 0.00 | 0.00 | 70 | 1010.3 |
| 20260508233324 | 16 | 308 | 0.0 | 0.0 | 403.30 | 0.00 | 0.00 | 66 | 1010.4 |
| 20260508233248 | 15 | 353 | 0.0 | 0.0 | 403.30 | 0.00 | 0.00 | 70 | 1010.3 |
| 20260508232748 | 15 | 345 | 3.2 | 0.0 | 403.30 | 0.00 | 0.00 | 69 | 1010.3 |
| 20260508232248 | 15 | 7 | 0.0 | 0.0 | 403.30 | 0.00 | 0.00 | 68 | 1010.3 |
| 20260508231749 | 16 | 1 | 1.6 | 0.0 | 403.30 | 0.00 | 0.00 | 67 | 1010.4 |
| 20260508231248 | 16 | 308 | 0.0 | 0.0 | 403.30 | 0.00 | 0.00 | 66 | 1010.4 |
| 20260508230748 | 16 | 80 | 6.4 | 0.0 | 403.30 | 0.00 | 0.00 | 62 | 1010.5 |
| 20260508230248 | 16 | 274 | 9.7 | 0.0 | 403.30 | 0.00 | 0.00 | 57 | 1010.6 |
| 20260508225748 | 17 | 309 | 11.3 | 0.0 | 403.30 | 0.00 | 0.00 | 54 | 1010.6 |
| 20260508225441 | 17 | 250 | 1.6 | 0.0 | 403.30 | 0.00 | 0.00 | 53 | 1010.4 |
| 20260508225248 | 17 | 287 | 4.8 | 0.0 | 403.30 | 0.00 | 0.00 | 53 | 1010.6 |
| 20260508224748 | 17 | 250 | 1.6 | 0.0 | 403.30 | 0.00 | 0.00 | 53 | 1010.4 |
| 20260508224248 | 17 | 283 | 4.8 | 0.0 | 403.30 | 0.00 | 0.00 | 52 | 1010.3 |
| 20260508223829 | 17 | 293 | 9.7 | 0.0 | 403.30 | 0.00 | 0.00 | 51 | 1010.4 |
| 20260508223748 | 17 | 242 | 0.0 | 0.0 | 403.30 | 0.00 | 0.00 | 51 | 1010.4 |
| 20260508223248 | 17 | 293 | 9.7 | 0.0 | 403.30 | 0.00 | 0.00 | 51 | 1010.4 |
| 20260508222957 | 17 | 342 | 3.2 | 0.0 | 403.30 | 0.00 | 0.00 | 49 | 1010.4 |
| 20260508222748 | 17 | 333 | 6.4 | 0.0 | 403.30 | 0.00 | 0.00 | 50 | 1010.4 |
| 20260508222248 | 17 | 342 | 3.2 | 0.0 | 403.30 | 0.00 | 0.00 | 49 | 1010.4 |
| 20260508221749 | 18 | 6 | 4.8 | 0.0 | 403.30 | 0.00 | 0.00 | 48 | 1010.2 |
| 20260508221248 | 18 | 318 | 3.2 | 0.0 | 403.30 | 0.00 | 0.00 | 47 | 1010.3 |
| 20260508220748 | 18 | 291 | 3.2 | 0.0 | 403.30 | 0.00 | 0.00 | 46 | 1010.3 |
| 20260508220327 | 18 | 359 | 8.0 | 0.0 | 403.30 | 0.00 | 0.00 | 43 | 1010.1 |
| 20260508220248 | 18 | 293 | 8.0 | 0.0 | 403.30 | 0.00 | 0.00 | 44 | 1010.3 |
| 20260508215749 | 18 | 359 | 8.0 | 0.0 | 403.30 | 0.00 | 0.00 | 43 | 1010.1 |
| 20260508215310 | 18 | 266 | 4.8 | 0.0 | 403.30 | 0.00 | 0.00 | 43 | 1009.9 |
| 20260508215249 | 18 | 300 | 17.7 | 0.0 | 403.30 | 0.00 | 0.00 | 42 | 1010.0 |
| 20260508214749 | 18 | 266 | 4.8 | 0.0 | 403.30 | 0.00 | 0.00 | 43 | 1009.9 |
| 20260508214250 | 18 | 267 | 11.3 | 0.0 | 403.30 | 0.00 | 0.00 | 42 | 1010.0 |
| 20260508213906 | 19 | 273 | 8.0 | 0.0 | 403.30 | 0.00 | 0.00 | 43 | 1009.9 |
| 20260508213749 | 19 | 307 | 17.7 | 0.0 | 403.30 | 0.00 | 0.00 | 39 | 1009.9 |
| 20260508213546 | 19 | 262 | 11.3 | 0.0 | 403.30 | 0.00 | 0.00 | 41 | 1010.0 |
| 20260508212749 | 19 | 273 | 8.0 | 0.0 | 403.30 | 0.00 | 0.00 | 43 | 1009.9 |
| 20260508212248 | 19 | 262 | 11.3 | 0.0 | 403.30 | 0.00 | 0.00 | 41 | 1010.0 |
| 20260508211748 | 19 | 308 | 8.0 | 0.0 | 403.30 | 0.00 | 0.00 | 39 | 1009.9 |
| 20260508211536 | 19 | 298 | 9.7 | 0.0 | 403.30 | 0.00 | 0.00 | 38 | 1010.0 |
| 20260508210748 | 19 | 298 | 9.7 | 0.0 | 403.30 | 0.00 | 0.00 | 38 | 1010.0 |
| 20260508210248 | 19 | 255 | 24.1 | 0.0 | 403.30 | 0.00 | 0.00 | 41 | 1010.0 |
| 20260508205749 | 19 | 274 | 20.9 | 0.0 | 403.30 | 0.00 | 0.00 | 40 | 1010.0 |
| 20260508205249 | 19 | 219 | 17.7 | 0.0 | 403.30 | 0.00 | 0.00 | 43 | 1010.0 |
| 20260508204748 | 19 | 211 | 4.8 | 0.0 | 403.30 | 0.00 | 0.00 | 42 | 1010.0 |
| 20260508204251 | 19 | 295 | 12.9 | 0.0 | 403.30 | 0.00 | 0.00 | 41 | 1010.1 |
| 20260508203748 | 19 | 229 | 16.1 | 0.0 | 403.30 | 0.00 | 0.00 | 42 | 1010.1 |
| 20260508202748 | 18 | 245 | 6.4 | 0.0 | 403.30 | 0.00 | 0.00 | 43 | 1010.2 |
| 20260508202250 | 18 | 304 | 12.9 | 0.0 | 403.30 | 0.00 | 0.00 | 43 | 1010.4 |
| 20260508200748 | 18 | 255 | 11.3 | 0.0 | 403.30 | 0.00 | 0.00 | 43 | 1010.6 |
| 20260508200629 | 18 | 221 | 4.8 | 0.0 | 403.30 | 0.00 | 0.00 | 44 | 1010.7 |
| 20260508195748 | 18 | 221 | 4.8 | 0.0 | 403.30 | 0.00 | 0.00 | 44 | 1010.7 |
| 20260508195403 | 18 | 255 | 22.5 | 0.0 | 403.30 | 0.00 | 0.00 | 41 | 1010.9 |
| 20260508195248 | 18 | 319 | 9.7 | 0.0 | 403.30 | 0.00 | 0.00 | 43 | 1010.8 |
| 20260508194748 | 18 | 347 | 3.2 | 0.0 | 403.30 | 0.00 | 0.00 | 43 | 1010.8 |
| 20260508194248 | 18 | 255 | 22.5 | 0.0 | 403.30 | 0.00 | 0.00 | 41 | 1010.9 |
| 20260508194038 | 18 | 300 | 11.3 | 0.0 | 403.30 | 0.00 | 0.00 | 43 | 1011.0 |
| 20260508193748 | 18 | 300 | 11.3 | 0.0 | 403.30 | 0.00 | 0.00 | 43 | 1011.0 |
| 20260508193249 | 18 | 290 | 4.8 | 0.0 | 403.30 | 0.00 | 0.00 | 45 | 1010.9 |
| 20260508192750 | 18 | 108 | 4.8 | 0.0 | 403.30 | 0.00 | 0.00 | 46 | 1011.0 |
| 20260508190749 | 19 | 308 | 4.8 | 0.0 | 403.30 | 0.00 | 0.00 | 44 | 1011.3 |
| 20260508190249 | 19 | 281 | 4.8 | 0.0 | 403.30 | 0.00 | 0.00 | 44 | 1011.3 |
| 20260508185749 | 20 | 197 | 1.6 | 0.0 | 403.30 | 0.00 | 0.00 | 44 | 1011.3 |
| 20260508185250 | 20 | 211 | 3.2 | 0.0 | 403.30 | 0.00 | 0.00 | 43 | 1011.4 |
| 20260508184749 | 20 | 257 | 3.2 | 0.0 | 403.30 | 0.00 | 0.00 | 43 | 1011.4 |
| 20260508184250 | 20 | 325 | 4.8 | 0.0 | 403.30 | 0.00 | 0.00 | 43 | 1011.4 |
| 20260508183748 | 20 | 259 | 3.2 | 0.0 | 403.30 | 0.00 | 0.00 | 41 | 1011.4 |
| 20260508180749 | 19 | 338 | 3.2 | 0.0 | 403.30 | 0.00 | 0.00 | 47 | 1011.9 |
| 20260508180249 | 18 | 281 | 9.7 | 0.0 | 403.30 | 0.00 | 0.00 | 47 | 1012.2 |
| 20260508180212 | 17 | 87 | 0.0 | 0.0 | 403.30 | 0.00 | 0.00 | 50 | 1012.6 |